Satellite: HUBBLE Catalog number: 20580 Epoch time: 16272.89991898 Element set: 999 Inclination: 28.4702 deg RA of node: 293.7571 deg Eccentricity: 0.0002544 Arg of perigee: 240.8177 deg Mean anomaly: 137.3465 deg Mean motion: 15.08515710 rev/day Decay rate: 1.103e-05 rev/day^2 Epoch rev: 25078 Checksum: 319
Satellite: ISS Catalog number: 25544 Epoch time: 16273.99933946 Element set: 999 Inclination: 51.6434 deg RA of node: 255.2004 deg Eccentricity: 0.0006578 Arg of perigee: 20.7587 deg Mean anomaly: 54.7679 deg Mean motion: 15.53985022 rev/day Decay rate: 5.788e-05 rev/day^2 Epoch rev: 2129 Checksum: 342
Satellite: CO-58 Catalog number: 28895 Epoch time: 16273.10622784 Element set: 999 Inclination: 97.8404 deg RA of node: 81.8709 deg Eccentricity: 0.0015626 Arg of perigee: 248.2450 deg Mean anomaly: 111.7090 deg Mean motion: 14.63261705 rev/day Decay rate: 3.49e-06 rev/day^2 Epoch rev: 58230 Checksum: 329
Satellite: AAUSAT2 Catalog number: 32788 Epoch time: 16273.10361689 Element set: 999 Inclination: 97.5936 deg RA of node: 312.4989 deg Eccentricity: 0.0010573 Arg of perigee: 285.0367 deg Mean anomaly: 74.9682 deg Mean motion: 14.93424254 rev/day Decay rate: 1.148e-05 rev/day^2 Epoch rev: 45670 Checksum: 350
Satellite: DO-64 Catalog number: 32789 Epoch time: 16273.15333196 Element set: 999 Inclination: 97.5972 deg RA of node: 330.5323 deg Eccentricity: 0.0010977 Arg of perigee: 267.1191 deg Mean anomaly: 92.8778 deg Mean motion: 15.03755685 rev/day Decay rate: 3.956e-05 rev/day^2 Epoch rev: 45762 Checksum: 367
Satellite: CO-66 Catalog number: 32791 Epoch time: 16273.08986747 Element set: 999 Inclination: 97.5945 deg RA of node: 306.4543 deg Eccentricity: 0.0012200 Arg of perigee: 304.8451 deg Mean anomaly: 55.1620 deg Mean motion: 14.89914809 rev/day Decay rate: 8.88e-06 rev/day^2 Epoch rev: 45626 Checksum: 352
Satellite: RS-30 Catalog number: 32953 Epoch time: 16273.83410231 Element set: 999 Inclination: 82.5049 deg RA of node: 41.5624 deg Eccentricity: 0.0019842 Arg of perigee: 133.1478 deg Mean anomaly: 227.1264 deg Mean motion: 12.43071885 rev/day Decay rate: 7.0e-08 rev/day^2 Epoch rev: 37907 Checksum: 302
Satellite: JUGNU Catalog number: 37839 Epoch time: 16273.28909131 Element set: 999 Inclination: 19.9608 deg RA of node: 232.3902 deg Eccentricity: 0.0019003 Arg of perigee: 186.9853 deg Mean anomaly: 327.6430 deg Mean motion: 14.12554885 rev/day Decay rate: 3.51e-06 rev/day^2 Epoch rev: 25676 Checksum: 328
Satellite: SRMSAT Catalog number: 37841 Epoch time: 16273.17697053 Element set: 999 Inclination: 19.9717 deg RA of node: 269.3880 deg Eccentricity: 0.0012091 Arg of perigee: 94.2991 deg Mean anomaly: 344.3623 deg Mean motion: 14.10552170 rev/day Decay rate: 3.39e-06 rev/day^2 Epoch rev: 25638 Checksum: 323
Satellite: AO-71 Catalog number: 37854 Epoch time: 16273.18939286 Element set: 999 Inclination: 101.6983 deg RA of node: 8.2856 deg Eccentricity: 0.0171762 Arg of perigee: 126.7813 deg Mean anomaly: 234.9300 deg Mean motion: 15.02812292 rev/day Decay rate: 5.980e-05 rev/day^2 Epoch rev: 26771 Checksum: 343
Satellite: HRBE Catalog number: 37855 Epoch time: 16273.14988945 Element set: 999 Inclination: 101.7101 deg RA of node: 6.2199 deg Eccentricity: 0.0184636 Arg of perigee: 131.9220 deg Mean anomaly: 229.7899 deg Mean motion: 15.01731035 rev/day Decay rate: 7.280e-05 rev/day^2 Epoch rev: 26759 Checksum: 332
Satellite: HORYU-2 Catalog number: 38340 Epoch time: 16273.02517483 Element set: 999 Inclination: 98.3640 deg RA of node: 261.9660 deg Eccentricity: 0.0012717 Arg of perigee: 46.7779 deg Mean anomaly: 313.4488 deg Mean motion: 14.75129145 rev/day Decay rate: 5.96e-06 rev/day^2 Epoch rev: 23478 Checksum: 338
Satellite: RS-40 Catalog number: 38735 Epoch time: 16273.81704009 Element set: 999 Inclination: 82.4734 deg RA of node: 126.5471 deg Eccentricity: 0.0016059 Arg of perigee: 234.9744 deg Mean anomaly: 124.9829 deg Mean motion: 12.42573513 rev/day Decay rate: 4.2e-07 rev/day^2 Epoch rev: 18935 Checksum: 324
Satellite: BEESAT-3 Catalog number: 39134 Epoch time: 16272.60365575 Element set: 999 Inclination: 64.8729 deg RA of node: 349.9726 deg Eccentricity: 0.0016543 Arg of perigee: 307.9113 deg Mean anomaly: 52.0516 deg Mean motion: 15.16515623 rev/day Decay rate: 3.941e-05 rev/day^2 Epoch rev: 18979 Checksum: 338
Satellite: BEESAT-2 Catalog number: 39136 Epoch time: 16273.50096899 Element set: 999 Inclination: 64.8740 deg RA of node: 354.3633 deg Eccentricity: 0.0015793 Arg of perigee: 307.4872 deg Mean anomaly: 52.4816 deg Mean motion: 15.14076638 rev/day Decay rate: 3.651e-05 rev/day^2 Epoch rev: 18979 Checksum: 353
Satellite: ZACUBE-1 Catalog number: 39417 Epoch time: 16273.09467699 Element set: 999 Inclination: 97.6687 deg RA of node: 321.4673 deg Eccentricity: 0.0060563 Arg of perigee: 44.6450 deg Mean anomaly: 315.9616 deg Mean motion: 14.80496432 rev/day Decay rate: 6.30e-06 rev/day^2 Epoch rev: 15414 Checksum: 339
Satellite: TRITON-1 Catalog number: 39427 Epoch time: 16273.49893070 Element set: 999 Inclination: 97.6595 deg RA of node: 300.1026 deg Eccentricity: 0.0116143 Arg of perigee: 103.4212 deg Mean anomaly: 257.9970 deg Mean motion: 14.67270716 rev/day Decay rate: 5.75e-06 rev/day^2 Epoch rev: 15281 Checksum: 318
Satellite: GOMX-1 Catalog number: 39430 Epoch time: 16273.59287495 Element set: 999 Inclination: 97.6669 deg RA of node: 286.5870 deg Eccentricity: 0.0152897 Arg of perigee: 145.5430 deg Mean anomaly: 215.5797 deg Mean motion: 14.58678402 rev/day Decay rate: 3.76e-06 rev/day^2 Epoch rev: 15194 Checksum: 375
Satellite: LO-74 Catalog number: 39440 Epoch time: 16273.33575943 Element set: 999 Inclination: 97.6632 deg RA of node: 313.0149 deg Eccentricity: 0.0082378 Arg of perigee: 66.7544 deg Mean anomaly: 294.2313 deg Mean motion: 14.75251883 rev/day Decay rate: 6.49e-06 rev/day^2 Epoch rev: 15363 Checksum: 345
Satellite: SPROUT Catalog number: 39770 Epoch time: 16273.02889840 Element set: 999 Inclination: 97.8736 deg RA of node: 9.1126 deg Eccentricity: 0.0010701 Arg of perigee: 103.7715 deg Mean anomaly: 256.4692 deg Mean motion: 14.85649799 rev/day Decay rate: 1.906e-05 rev/day^2 Epoch rev: 12735 Checksum: 341
Satellite: EO-80 Catalog number: 40032 Epoch time: 16273.72585091 Element set: 999 Inclination: 97.9177 deg RA of node: 178.4840 deg Eccentricity: 0.0013538 Arg of perigee: 76.5910 deg Mean anomaly: 283.6815 deg Mean motion: 14.87702102 rev/day Decay rate: 8.51e-06 rev/day^2 Epoch rev: 12371 Checksum: 323
Satellite: VELOX-1 Catalog number: 40057 Epoch time: 16273.81482776 Element set: 999 Inclination: 98.1937 deg RA of node: 4.1825 deg Eccentricity: 0.0011276 Arg of perigee: 165.9014 deg Mean anomaly: 194.2520 deg Mean motion: 14.76835375 rev/day Decay rate: 6.14e-06 rev/day^2 Epoch rev: 12132 Checksum: 308
Satellite: DAURIA DX 1 Catalog number: 40071 Epoch time: 16273.80473165 Element set: 999 Inclination: 98.3322 deg RA of node: 8.7489 deg Eccentricity: 0.0008504 Arg of perigee: 161.4140 deg Mean anomaly: 198.7397 deg Mean motion: 14.80880395 rev/day Decay rate: 2.98e-06 rev/day^2 Epoch rev: 12043 Checksum: 318
Satellite: UKUBE-1 Catalog number: 40074 Epoch time: 16273.78210228 Element set: 999 Inclination: 98.3373 deg RA of node: 11.3139 deg Eccentricity: 0.0005030 Arg of perigee: 158.0977 deg Mean anomaly: 202.0467 deg Mean motion: 14.83205316 rev/day Decay rate: 6.53e-06 rev/day^2 Epoch rev: 12057 Checksum: 281
Satellite: HODOYOSHI-1 Catalog number: 40299 Epoch time: 16273.77385505 Element set: 999 Inclination: 97.4253 deg RA of node: 354.2686 deg Eccentricity: 0.0012068 Arg of perigee: 288.6953 deg Mean anomaly: 185.7456 deg Mean motion: 15.21614648 rev/day Decay rate: 1.759e-05 rev/day^2 Epoch rev: 10533 Checksum: 350
Satellite: CHUBUSAT-1 Catalog number: 40300 Epoch time: 16273.82399878 Element set: 999 Inclination: 97.4199 deg RA of node: 352.2504 deg Eccentricity: 0.0019579 Arg of perigee: 294.9473 deg Mean anomaly: 183.2051 deg Mean motion: 15.20151967 rev/day Decay rate: 1.997e-05 rev/day^2 Epoch rev: 10522 Checksum: 339
Satellite: QSAT-EOS Catalog number: 40301 Epoch time: 16273.81185052 Element set: 999 Inclination: 97.4141 deg RA of node: 351.7177 deg Eccentricity: 0.0027278 Arg of perigee: 292.8205 deg Mean anomaly: 184.5361 deg Mean motion: 15.21730875 rev/day Decay rate: 4.104e-05 rev/day^2 Epoch rev: 10521 Checksum: 289
Satellite: FIREBIRD FU3 Catalog number: 40377 Epoch time: 16273.83075035 Element set: 999 Inclination: 99.0971 deg RA of node: 40.6323 deg Eccentricity: 0.0142182 Arg of perigee: 143.8885 deg Mean anomaly: 217.2047 deg Mean motion: 15.13441026 rev/day Decay rate: 1.0136e-04 rev/day^2 Epoch rev: 9160 Checksum: 293
Satellite: FIREBIRD FU4 Catalog number: 40378 Epoch time: 16273.82638967 Element set: 999 Inclination: 99.0974 deg RA of node: 40.6462 deg Eccentricity: 0.0142393 Arg of perigee: 143.8273 deg Mean anomaly: 217.2687 deg Mean motion: 15.13457595 rev/day Decay rate: 9.898e-05 rev/day^2 Epoch rev: 9160 Checksum: 367
Satellite: GRIFEX Catalog number: 40379 Epoch time: 16273.82425892 Element set: 999 Inclination: 99.0979 deg RA of node: 39.4548 deg Eccentricity: 0.0146937 Arg of perigee: 148.3839 deg Mean anomaly: 212.6319 deg Mean motion: 15.11471832 rev/day Decay rate: 7.609e-05 rev/day^2 Epoch rev: 9153 Checksum: 356
Satellite: NO-84 Catalog number: 40654 Epoch time: 16273.39410284 Element set: 0237 Inclination: 055.0000 deg RA of node: 317.5946 deg Eccentricity: 0.0198746 Arg of perigee: 333.4132 deg Mean anomaly: 025.6833 deg Mean motion: 15.27542050 rev/day Decay rate: 1.5472e-04 rev/day^2 Epoch rev: 03995 Checksum: 303
